Temp
-6 -6 -6 -7 -7 -7 -6 -7 -6 -6 -6 -6 -6 -6 -6 -6 -6 -6 -6 -7 -7 -6 -7 -7 -7 -7 -8 -7 -7 -7 -8 -8 -8 -8 -8 -8 -8 -8 -8 -8 -9 -8 -8
-6 -6 -6 -6 -7 -6 -6 -6 -6 -6 -6 -6 -6 -6 -7 -6 -7 -6 -6 -7 -7 -7 -7 -7 -7 -8 -8 -8 -8 -8 -8 -8 -8 -8 -8 -8 -8 -8 -9 -9 -9 -9 -9
-6 -6 -6 -6 -6 -6 -6 -6 -6 -6 -6 -6 -6 -6 -7 -7 -6 -6 -6 -6 -7 -7 -7 -7 -7 -8 -8 -8 -8 -8 -8 -8 -8 -8 -8 -9 -9 -9 -9 -9 -9 -9 -9
-7 -6 -6 -7 -7 -6 -6 -6 -6 -6 -6 -6 -6 -6 -6 -6 -6 -6 -6 -6 -7 -7 -7 -7 -7 -8 -8 -8 -8 -8 -8 -8 -8 -9 -9 -9 -9 -9 -9 -8 -8 -9 -9
-7 -7 -7 -7 -7 -7 -6 -6 -6 -6 -7 -7 -7 -7 -7 -6 -6 -6 -6 -6 -7 -7 -7 -7 -7 -8 -8 -8 -8 -9 -8 -9 -9 -9 -9 -9 -8 -9 -9 -9 -9 -8 -9
-7 -7 -7 -7 -7 -7 -7 -7 -7 -7 -7 -7 -7 -7 -7 -7 -7 -7 -6 -7 -7 -7 -7 -7 -7 -8 -8 -8 -8 -8 -9 -9 -9 -9 -9 -9 -9 -9 -9 -9 -9 -9 -9
-7 -7 -7 -7 -7 -7 -7 -7 -7 -7 -7 -7 -7 -7 -6 -7 -7 -7 -6 -7 -7 -7 -7 -7 -7 -7 -8 -8 -8 -8 -9 -9 -9 -9 -9 -9 -9 -9 -9 -9 -9 -9 -9
-7 -7 -7 -8 -8 -8 -8 -8 -7 -7 -7 -7 -7 -7 -7 -7 -7 -6 -6 -7 -7 -7 -7 -7 -8 -7 -7 -8 -8 -8 -9 -9 -9 -9 -9 -9 -9 -9 -9 -9 -9 -9 -9
-7 -8 -8 -8 -8 -8 -8 -8 -8 -7 -7 -7 -7 -7 -6 -7 -6 -6 -7 -6 -7 -7 -7 -7 -7 -8 -8 -8 -8 -7 -8 -8 -9 -9 -9 -9 -9 -9 -9 -9 -9 -10 -10
-7 -8 -8 -8 -8 -8 -8 -8 -7 -7 -7 -7 -7 -7 -6 -7 -7 -6 -6 -7 -7 -7 -7 -7 -7 -8 -8 -8 -7 -8 -7 -8 -9 -8 -8 -9 -9 -9 -9 -9 -9 -9 -10
-7 -7 -8 -8 -8 -7 -7 -7 -7 -7 -7 -7 -7 -7 -7 -6 -6 -6 -6 -7 -7 -7 -7 -7 -7 -8 -8 -7 -7 -8 -8 -8 -8 -9 -9 -8 -8 -9 -9 -9 -10 -10 -10
-7 -7 -7 -8 -7 -7 -7 -7 -7 -7 -7 -7 -7 -7 -6 -7 -6 -6 -6 -6 -6 -7 -7 -7 -7 -7 -7 -7 -7 -7 -7 -8 -8 -8 -8 -8 -8 -8 -9 -9 -9 -10 -10
-7 -7 -7 -7 -7 -7 -7 -7 -7 -7 -7 -6 -6 -6 -6 -6 -6 -6 -6 -6 -6 -6 -7 -7 -7 -7 -7 -7 -7 -7 -7 -7 -7 -8 -8 -8 -8 -8 -8 -9 -9 -9 -10
-7 -7 -7 -7 -7 -7 -7 -7 -7 -7 -6 -7 -6 -6 -6 -6 -6 -6 -6 -6 -6 -6 -6 -7 -7 -7 -7 -7 -7 -7 -7 -8 -7 -7 -8 -8 -8 -8 -9 -9 -9 -9 -10
-7 -7 -7 -7 -7 -7 -7 -7 -7 -6 -7 -7 -7 -7 -7 -7 -7 -6 -6 -6 -6 -6 -6 -6 -7 -7 -7 -7 -7 -7 -7 -7 -8 -7 -8 -8 -8 -8 -8 -9 -9 -9 -10
-7 -7 -7 -7 -7 -7 -7 -7 -7 -7 -7 -7 -7 -7 -7 -7 -7 -7 -7 -7 -7 -6 -7 -7 -7 -7 -7 -7 -7 -7 -7 -7 -7 -7 -8 -8 -8 -8 -9 -9 -9 -9 -10
-7 -7 -7 -7 -7 -7 -7 -7 -7 -7 -7 -7 -7 -7 -7 -7 -7 -7 -7 -7 -7 -7 -7 -7 -7 -7 -7 -7 -7 -7 -7 -7 -7 -7 -7 -7 -7 -8 -9 -9 -9 -9 -10
-6 -6 -6 -6 -6 -6 -7 -7 -7 -7 -7 -7 -7 -7 -7 -7 -7 -7 -7 -7 -6 -6 -6 -6 -7 -6 -6 -7 -7 -7 -7 -7 -7 -6 -7 -7 -7 -8 -8 -9 -9 -9 -9
-6 -6 -6 -6 -6 -6 -6 -6 -7 -7 -6 -6 -6 -6 -6 -7 -7 -6 -6 -6 -7 -7 -7 -7 -7 -6 -6 -6 -7 -7 -7 -6 -6 -7 -7 -7 -7 -8 -8 -8 -8 -9 -9
-6 -6 -6 -6 -6 -6 -6 -6 -5 -5 -5 -5 -6 -6 -6 -6 -6 -6 -6 -6 -7 -7 -7 -7 -7 -7 -7 -7 -7 -7 -7 -6 -6 -6 -6 -7 -7 -7 -7 -7 -8 -8 -9
-5 -6 -6 -6 -6 -6 -6 -5 -5 -6 -6 -6 -6 -6 -7 -7 -6 -6 -6 -6 -7 -7 -7 -7 -7 -7 -7 -7 -7 -7 -7 -7 -7 -6 -7 -6 -7 -7 -7 -7 -7 -7 -8
-6 -6 -6 -6 -6 -6 -6 -6 -6 -7 -7 -7 -7 -6 -7 -7 -7 -6 -6 -6 -6 -7 -7 -7 -7 -7 -7 -7 -7 -7 -7 -7 -6 -7 -7 -6 -7 -7 -7 -7 -7 -7 -8
-7 -7 -7 -7 -6 -6 -7 -7 -7 -7 -6 -6 -6 -6 -6 -6 -6 -6 -6 -7 -7 -7 -7 -7 -7 -7 -7 -7 -7 -7 -6 -6 -6 -6 -6 -6 -7 -7 -7 -7 -7 -7 -8
-8 -8 -7 -7 -7 -7 -7 -7 -7 -7 -8 -8 -7 -6 -6 -6 -5 -6 -7 -7 -6 -7 -7 -7 -7 -7 -7 -7 -7 -6 -7 -7 -6 -7 -7 -7 -6 -7 -7 -7 -7 -7 -7
-8 -8 -8 -8 -7 -7 -8 -7 -7 -7 -7 -7 -8 -6 -6 -4 -7 -8 -7 -7 -8 -7 -7 -8 -7 -7 -7 -7 -7 -7 -6 -7 -7 -7 -6 -7 -6 -7 -7 -7 -7 -7 -7
-8 -8 -8 -8 -7 -8 -7 -7 -7 -7 -7 -7 -7 -7 -5 -5 -7 -7 -8 -8 -7 -7 -7 -7 -7 -7 -7 -7 -7 -7 -7 -7 -7 -7 -7 -7 -7 -7 -6 -6 -7 -7 -7
Height
5886 5887 5888 5889 5889 5888 5889 5889 5889 5889 5890 5891 5891 5892 5892 5893 5894 5894 5893 5893 5893 5894 5894 5893 5894 5893 5892 5892 5892 5891 5891 5890 5890 5891 5890 5889 5889 5888 5889 5890 5890 5889 5889
5888 5888 5889 5890 5890 5890 5891 5890 5891 5890 5892 5891 5892 5892 5893 5893 5894 5894 5894 5895 5896 5895 5895 5895 5895 5894 5893 5893 5893 5892 5891 5890 5890 5889 5889 5889 5889 5888 5889 5889 5889 5890 5890
5890 5890 5890 5891 5892 5892 5893 5893 5893 5893 5893 5893 5893 5893 5893 5894 5894 5896 5896 5896 5897 5897 5897 5897 5896 5895 5895 5894 5893 5892 5892 5892 5891 5890 5890 5889 5889 5889 5888 5889 5890 5890 5889
5891 5891 5892 5892 5893 5894 5894 5894 5895 5895 5895 5895 5895 5895 5895 5894 5895 5896 5896 5896 5897 5898 5897 5897 5896 5895 5895 5895 5895 5894 5894 5893 5892 5892 5891 5890 5889 5889 5889 5889 5889 5890 5891
5893 5893 5892 5894 5895 5895 5896 5896 5897 5896 5896 5896 5897 5897 5897 5897 5897 5898 5897 5897 5897 5898 5898 5898 5897 5896 5896 5896 5896 5895 5894 5894 5893 5892 5891 5891 5891 5890 5890 5890 5890 5889 5890
5894 5894 5894 5895 5896 5897 5897 5897 5897 5897 5897 5897 5898 5898 5898 5898 5899 5898 5898 5898 5898 5898 5898 5898 5897 5896 5896 5896 5896 5896 5895 5893 5892 5892 5892 5891 5891 5891 5890 5890 5890 5890 5890
5895 5896 5896 5897 5898 5898 5898 5898 5898 5898 5898 5899 5899 5899 5898 5899 5899 5899 5898 5898 5898 5898 5897 5897 5897 5896 5895 5896 5895 5895 5894 5892 5892 5892 5892 5891 5890 5890 5890 5890 5890 5890 5890
5896 5896 5897 5898 5898 5899 5899 5899 5899 5899 5899 5899 5900 5899 5899 5899 5898 5898 5898 5898 5898 5898 5897 5897 5896 5896 5895 5894 5894 5893 5893 5892 5892 5891 5890 5890 5890 5889 5890 5890 5891 5891 5890
5896 5896 5897 5898 5899 5899 5899 5900 5900 5899 5900 5899 5899 5899 5900 5899 5899 5899 5899 5898 5898 5898 5897 5897 5896 5896 5894 5893 5893 5892 5892 5892 5891 5891 5890 5889 5890 5890 5890 5889 5890 5889 5889
5896 5896 5897 5898 5899 5899 5899 5900 5900 5900 5900 5900 5899 5899 5900 5900 5899 5900 5900 5900 5899 5899 5899 5898 5897 5896 5893 5893 5891 5892 5892 5891 5890 5889 5889 5889 5889 5889 5890 5890 5889 5889 5889
5897 5896 5897 5898 5899 5899 5899 5899 5900 5900 5900 5900 5900 5900 5900 5899 5900 5899 5899 5900 5900 5899 5898 5898 5898 5896 5893 5892 5891 5891 5890 5889 5889 5888 5888 5888 5887 5887 5887 5889 5889 5888 5888
5897 5897 5897 5898 5898 5899 5899 5899 5899 5899 5899 5899 5900 5900 5899 5899 5899 5900 5899 5899 5899 5899 5899 5897 5896 5895 5893 5892 5891 5891 5889 5889 5887 5887 5888 5888 5887 5887 5886 5886 5886 5887 5887
5898 5898 5898 5898 5899 5899 5899 5899 5899 5899 5899 5899 5899 5899 5898 5898 5898 5897 5897 5898 5899 5899 5898 5897 5895 5894 5893 5892 5892 5891 5889 5888 5887 5885 5886 5887 5886 5886 5885 5885 5885 5884 5885
5899 5899 5899 5899 5900 5899 5899 5899 5899 5899 5899 5899 5899 5898 5897 5897 5897 5897 5898 5898 5897 5897 5897 5896 5895 5893 5892 5891 5891 5891 5889 5887 5885 5884 5884 5884 5885 5884 5884 5883 5882 5883 5883
5899 5900 5900 5900 5900 5900 5900 5899 5898 5897 5898 5897 5897 5896 5895 5896 5896 5897 5897 5897 5898 5897 5897 5896 5895 5893 5893 5891 5890 5889 5887 5885 5884 5883 5882 5882 5881 5881 5881 5880 5880 5881 5880
5900 5901 5901 5901 5901 5900 5900 5899 5899 5899 5899 5898 5897 5896 5896 5894 5894 5894 5894 5895 5895 5895 5895 5895 5894 5893 5891 5890 5889 5886 5885 5882 5881 5882 5881 5880 5879 5879 5878 5876 5876 5877 5877
5901 5901 5901 5901 5901 5900 5899 5899 5899 5899 5899 5898 5897 5896 5895 5894 5894 5894 5892 5892 5892 5892 5892 5892 5892 5891 5890 5888 5887 5885 5883 5878 5881 5879 5878 5878 5878 5876 5875 5874 5872 5873 5873
5901 5901 5901 5900 5900 5899 5899 5899 5899 5899 5898 5898 5898 5896 5894 5892 5892 5892 5891 5891 5889 5889 5889 5889 5888 5888 5887 5886 5884 5882 5880 5879 5878 5877 5877 5875 5875 5874 5872 5871 5870 5871 5871
5901 5900 5900 5900 5900 5899 5899 5900 5898 5897 5897 5896 5896 5895 5894 5893 5890 5889 5889 5889 5888 5886 5885 5885 5885 5885 5884 5883 5882 5879 5877 5873 5874 5874 5874 5873 5872 5871 5870 5869 5869 5869 5869
5902 5901 5901 5901 5900 5899 5898 5898 5897 5897 5897 5897 5897 5896 5894 5889 5878 5885 5886 5886 5886 5885 5884 5882 5881 5882 5881 5880 5878 5877 5875 5873 5871 5871 5871 5869 5869 5869 5868 5867 5866 5866 5866
5903 5902 5901 5901 5902 5901 5899 5900 5901 5900 5900 5898 5897 5895 5893 5891 5889 5887 5886 5885 5885 5883 5881 5880 5878 5877 5876 5876 5875 5875 5872 5870 5869 5868 5866 5866 5866 5866 5865 5865 5864 5863 5863
5903 5903 5902 5901 5901 5901 5902 5901 5900 5898 5897 5895 5893 5892 5891 5890 5889 5887 5886 5886 5884 5882 5880 5878 5876 5874 5872 5871 5870 5869 5868 5867 5864 5861 5861 5862 5863 5863 5862 5862 5861 5861 5861
5901 5901 5901 5901 5902 5902 5900 5900 5899 5898 5897 5895 5892 5889 5887 5886 5885 5885 5884 5883 5883 5879 5878 5876 5873 5870 5869 5867 5865 5862 5863 5862 5861 5859 5858 5858 5858 5859 5859 5858 5859 5858 5858
5898 5899 5899 5900 5901 5901 5900 5900 5899 5898 5895 5892 5890 5885 5882 5879 5879 5880 5881 5881 5879 5877 5875 5872 5870 5868 5867 5865 5861 5859 5858 5857 5856 5855 5854 5854 5855 5855 5855 5855 5855 5855 5855
5898 5898 5899 5900 5901 5901 5900 5899 5898 5895 5892 5886 5885 5880 5871 5866 5868 5871 5875 5875 5873 5875 5873 5871 5869 5866 5863 5862 5859 5856 5851 5853 5852 5849 5848 5851 5850 5850 5850 5851 5852 5852 5851
5898 5898 5898 5898 5900 5900 5899 5897 5894 5891 5887 5884 5882 5878 5865 5860 5861 5867 5872 5872 5872 5873 5870 5868 5865 5863 5861 5859 5858 5854 5849 5849 5848 5846 5846 5847 5846 5847 5847 5844 5846 5846 5847
Wind_Speed
7 8 8 9 10 10 8 9 10 11 10 11 11 11 10 11 10 10 11 11 9 7 7 6 7 6 7 7 4 4 4 3 2 3 6 6 5 4 2 2 5 4 2
5 7 8 8 9 9 7 10 10 11 10 11 11 12 11 10 10 9 10 10 9 6 7 6 6 6 6 4 3 3 4 4 4 4 4 5 6 5 4 2 2 3 1
6 7 8 8 7 7 8 9 10 10 10 10 10 11 11 9 10 8 9 9 8 7 5 5 4 4 4 3 3 3 3 4 3 3 3 4 4 5 5 4 4 4 3
5 7 7 8 6 7 8 9 9 11 11 10 10 10 10 9 8 7 9 8 8 7 5 4 4 3 3 2 2 2 2 3 3 2 3 2 2 3 3 3 3 2 3
4 6 6 7 7 7 7 8 10 12 11 11 11 10 9 7 6 5 6 5 6 6 5 5 4 3 2 2 1 2 0 1 3 2 2 3 4 2 2 2 2 2 1
4 5 5 6 7 7 7 8 9 11 12 11 11 11 10 8 7 6 5 3 3 3 4 4 4 4 3 2 2 2 2 1 2 3 1 1 1 2 2 3 4 3 3
3 3 4 5 5 5 5 6 7 8 9 9 9 9 8 7 6 5 4 4 3 2 2 2 3 4 4 3 3 3 4 3 3 4 5 3 1 2 3 4 5 6 5
3 2 2 2 4 4 4 4 5 7 7 7 7 8 7 7 6 5 6 5 4 3 3 2 3 3 4 5 5 4 5 4 4 4 3 4 4 4 5 5 5 5 5
2 3 2 2 3 3 3 4 5 6 6 5 5 6 6 6 6 6 5 5 5 4 3 3 4 5 6 7 8 6 6 4 4 4 5 6 7 7 7 7 5 5 5
2 2 2 3 4 3 2 3 3 4 4 5 5 4 5 6 7 7 5 5 4 4 3 3 4 7 10 10 8 7 7 6 5 5 5 4 5 7 8 8 7 5 6
4 3 2 2 4 5 5 5 5 5 5 3 2 3 4 6 8 8 8 7 4 4 3 3 4 8 6 4 6 5 7 8 6 6 7 7 7 9 10 9 9 8 8
4 4 3 3 4 5 4 4 5 6 4 4 4 4 5 5 7 7 10 9 6 5 4 4 3 2 2 3 4 4 6 8 9 6 6 8 9 10 11 11 10 10 11
4 4 2 2 5 5 6 5 5 5 5 5 5 5 4 5 5 1 7 9 5 6 5 5 3 3 2 3 6 3 5 7 9 11 9 8 8 9 5 8 10 11 12
2 2 2 1 1 2 4 7 7 10 5 3 5 7 8 5 4 3 5 7 6 4 3 4 4 4 4 3 3 5 7 8 8 9 10 10 8 7 10 9 9 10 11
2 2 3 3 2 4 4 5 8 9 5 4 3 3 7 8 6 4 6 6 5 5 5 3 3 3 4 5 7 8 9 11 9 9 9 9 10 9 10 11 10 10 12
2 2 3 2 4 5 5 2 1 4 4 4 1 2 5 8 7 5 4 4 5 5 6 6 6 7 7 8 8 10 13 14 12 8 10 10 12 12 13 12 9 12 16
3 3 2 3 3 3 4 1 3 4 5 5 3 1 2 3 3 5 5 5 5 6 8 9 10 10 11 11 11 12 14 20 15 16 9 9 14 16 14 14 13 13 16
6 5 3 2 1 1 1 2 4 6 7 8 7 7 6 5 6 8 8 8 7 7 8 9 10 11 12 12 12 12 14 16 10 10 12 10 18 13 15 16 14 12 9
7 6 4 2 1 0 1 4 7 9 9 9 9 7 10 13 10 11 11 10 9 9 8 9 10 11 12 13 14 13 16 17 12 14 15 13 12 14 13 14 16 14 10
4 5 3 1 1 0 1 3 6 8 10 10 10 13 18 13 12 17 15 14 13 13 11 11 11 13 13 13 15 16 17 16 13 14 16 15 13 18 13 12 12 14 12
3 2 3 3 3 2 2 6 10 14 15 14 14 15 18 14 13 11 16 14 15 13 13 12 13 13 13 15 17 18 18 16 17 19 21 16 13 13 11 13 10 10 15
1 2 3 5 6 7 10 10 11 13 14 15 16 17 16 15 17 19 17 18 16 12 14 15 15 18 18 16 18 22 20 19 22 21 24 19 17 15 14 16 13 11 13
3 3 3 5 5 7 11 14 15 16 17 19 22 21 21 21 20 21 21 20 17 17 16 16 16 13 16 19 18 23 23 22 14 16 11 15 15 17 16 15 14 16 14
5 5 6 5 7 10 14 13 16 19 24 25 23 23 28 31 27 24 23 22 18 17 16 12 6 8 11 15 14 12 15 21 24 22 19 12 16 16 16 15 16 16 15
8 8 8 10 9 13 17 19 19 24 24 23 17 26 32 37 34 24 28 24 25 16 5 9 9 14 13 15 11 5 16 16 22 15 18 12 14 14 18 18 15 16 15
15 15 14 13 10 10 17 19 19 16 13 14 18 25 30 12 15 23 12 5 3 5 10 11 14 15 16 14 13 15 16 17 10 16 20 16 16 17 21 22 17 15 14
Wind_Direction
103 101 99 89 86 85 88 96 105 109 117 118 119 115 112 105 106 106 103 97 97 96 84 76 74 68 73 59 47 37 38 31 62 97 94 88 82 63 52 173 208 214 231
102 104 100 91 87 87 90 96 105 113 125 120 121 118 112 108 108 106 109 116 114 95 83 73 70 77 71 64 60 61 37 42 82 71 86 86 81 71 67 74 48 51 110
102 111 116 108 101 94 88 91 102 116 122 115 114 117 114 108 97 104 107 110 111 104 109 97 82 86 82 49 49 60 52 32 54 49 56 74 72 82 77 59 50 41 37
107 109 122 119 115 98 92 91 101 108 109 106 113 122 116 109 108 116 115 121 124 124 124 124 109 89 71 35 11 18 26 44 79 14 357 1 36 38 43 54 52 34 358
135 126 127 127 123 116 111 100 99 100 103 103 108 111 106 107 111 109 105 119 126 129 143 147 134 133 130 177 199 272 214 32 323 339 4 18 0 355 10 357 24 347 335
145 136 129 125 122 123 114 110 106 108 103 105 115 120 122 127 123 109 102 121 120 145 153 156 167 183 208 207 226 266 258 264 326 270 4 47 321 331 350 343 328 303 291
141 141 135 127 125 128 125 121 116 110 103 102 103 110 117 134 139 137 146 158 150 157 188 176 202 210 221 240 259 274 279 292 332 263 264 311 339 319 319 303 309 303 295
122 101 89 121 128 142 135 131 135 129 121 119 120 120 133 141 144 154 172 181 179 195 221 222 244 272 268 254 254 275 285 290 309 330 328 262 282 276 274 275 286 295 284
141 121 104 134 128 130 126 124 131 140 143 148 158 150 164 160 164 175 178 185 185 200 217 247 273 272 274 298 270 264 279 296 289 306 310 254 266 260 251 252 252 265 275
141 142 177 176 155 166 166 161 171 156 161 169 164 182 187 181 197 187 190 209 198 209 241 282 301 284 291 287 259 269 279 285 291 291 307 287 290 244 255 258 252 250 260
123 131 152 178 170 175 194 191 195 187 200 203 182 160 208 224 217 205 196 202 236 247 254 281 305 326 10 250 251 261 268 272 279 283 303 290 286 253 252 262 267 250 241
118 127 146 176 190 196 204 202 209 221 220 219 225 222 230 202 181 221 225 210 208 207 227 240 277 326 325 270 204 253 273 272 264 258 293 283 287 288 256 250 270 264 250
98 94 112 198 214 219 225 226 248 259 246 255 243 254 257 225 222 196 204 202 213 227 233 232 242 272 268 326 215 261 268 273 272 261 261 291 281 286 260 270 281 271 257
97 69 44 24 284 254 273 249 228 250 244 278 297 271 246 225 201 203 215 208 223 239 228 245 248 267 304 305 268 270 269 268 262 260 276 279 293 288 267 270 274 267 263
117 57 32 21 342 342 332 287 272 237 215 249 287 280 238 209 210 228 223 223 233 241 227 267 253 263 293 302 289 286 273 259 262 270 277 290 278 281 289 253 266 270 264
85 27 16 24 3 11 356 344 271 245 258 265 254 319 309 215 221 210 204 216 226 233 232 240 249 266 270 282 286 288 289 279 273 256 270 283 285 276 263 255 268 274 274
80 72 22 359 8 348 18 293 269 257 277 288 298 276 255 240 237 249 233 242 243 236 236 248 263 273 281 283 290 293 295 264 287 248 299 280 295 270 273 277 264 270 269
76 80 69 22 289 140 305 301 269 264 259 272 261 292 245 237 248 266 251 252 257 251 252 264 271 277 280 287 294 290 293 304 265 267 284 288 273 274 278 265 276 284 312
88 85 54 43 347 195 178 267 260 263 264 266 266 269 254 280 256 258 257 255 257 255 250 257 265 276 289 298 309 297 298 299 262 271 289 278 264 285 288 285 272 268 271
50 105 95 20 349 56 126 283 285 295 297 292 285 289 290 294 296 246 248 252 263 259 257 262 273 278 283 290 298 300 297 294 268 281 283 272 257 274 285 301 303 259 251
46 24 54 34 15 29 16 5 359 347 336 326 318 314 319 305 299 281 257 260 264 254 255 267 278 273 279 285 291 292 293 296 288 270 287 267 264 268 274 286 296 298 253
327 318 347 349 340 345 357 357 347 339 334 325 320 315 309 306 291 286 278 269 270 276 282 281 284 282 280 282 289 286 287 288 294 290 264 252 260 263 267 277 289 306 289
288 286 289 307 325 342 342 342 333 326 333 325 315 308 307 299 289 285 284 279 278 277 281 297 305 302 282 284 287 280 270 276 273 261 251 266 271 269 263 252 263 286 291
251 251 282 310 315 333 348 339 331 330 316 320 318 313 296 284 277 278 281 284 277 280 291 288 322 339 316 305 291 307 286 267 266 265 260 251 276 265 266 261 271 273 278
264 265 278 286 322 5 5 0 341 333 335 320 305 343 297 286 255 254 267 272 272 279 287 288 306 307 303 318 321 302 291 287 260 291 254 259 288 272 260 266 270 279 273
293 292 294 303 313 353 354 352 348 355 16 358 346 352 6 337 272 260 272 17 112 259 296 306 307 305 302 306 311 310 314 315 307 291 280 263 256 260 268 253 255 281 259